TimeGMT,TemperatureF,Dew PointF,Humidity,Sea Level PressureIn,VisibilityMPH,Wind Direction,Wind SpeedMPH,Gust SpeedMPH,PrecipitationIn,Events,Conditions,WindDirDegrees,DateUTC
12:50 AM,33.8,32.0,93,30.39,6.2,WSW,6.9,-,N/A,,Mostly Cloudy,250,2013-03-02 00:50:00
1:50 AM,35.6,32.0,87,30.36,6.2,West,8.1,-,N/A,,Scattered Clouds,260,2013-03-02 01:50:00
2:50 AM,35,31,78,30.37,19,West,8.1,,,,Scattered Clouds,270,2013-03-02 02:50:00
2:50 AM,35.6,30.2,81,30.36,6.2,West,8.1,-,N/A,,Partly Cloudy,270,2013-03-02 02:50:00
3:50 AM,33.8,30.2,87,30.33,6.2,West,6.9,-,N/A,,Scattered Clouds,270,2013-03-02 03:50:00
4:50 AM,33.8,32.0,93,30.33,6.2,WSW,8.1,-,N/A,,Mostly Cloudy,250,2013-03-02 04:50:00
5:50 AM,34,31,83,30.32,19,West,9.2,,,,Mostly Cloudy,260,2013-03-02 05:50:00
6:50 AM,35.6,30.2,81,30.27,6.2,West,10.4,-,N/A,,Partly Cloudy,270,2013-03-02 06:50:00
7:50 AM,33.8,30.2,87,30.27,6.2,WSW,9.2,-,N/A,,Partly Cloudy,250,2013-03-02 07:50:00
8:50 AM,41,34,68,30.29,31,West,11.5,,,,Scattered Clouds,260,2013-03-02 08:50:00
8:50 AM,41.0,33.8,76,30.27,6.2,West,11.5,-,N/A,,Partly Cloudy,260,2013-03-02 08:50:00
9:50 AM,44.6,37.4,76,30.27,6.2,WSW,12.7,-,N/A,,Partly Cloudy,250,2013-03-02 09:50:00
10:50 AM,50.0,37.4,62,30.27,6.2,West,13.8,-,N/A,,Partly Cloudy,270,2013-03-02 10:50:00
11:50 AM,51,38,51,30.29,31,West,10.4,,,,Scattered Clouds,260,2013-03-02 11:50:00
11:50 AM,51.8,39.2,62,30.27,6.2,West,10.4,-,N/A,,Partly Cloudy,260,2013-03-02 11:50:00
12:50 PM,53.6,37.4,54,30.27,6.2,WNW,10.4,-,N/A,,Partly Cloudy,300,2013-03-02 12:50:00
1:50 PM,53.6,37.4,54,30.24,6.2,WNW,9.2,-,N/A,,Scattered Clouds,300,2013-03-02 13:50:00
2:50 PM,54,36,39,30.26,28,NW,9.2,,,,Partly Cloudy,310,2013-03-02 14:50:00
2:50 PM,53.6,35.6,51,30.24,6.2,NW,9.2,-,N/A,,Scattered Clouds,310,2013-03-02 14:50:00
3:50 PM,51.8,37.4,58,30.24,6.2,NW,8.1,-,N/A,,Scattered Clouds,310,2013-03-02 15:50:00
4:50 PM,50.0,37.4,62,30.24,6.2,NW,5.8,-,N/A,,Mostly Cloudy,310,2013-03-02 16:50:00
5:50 PM,50,38,52,30.25,31,WNW,4.6,,,,Mostly Cloudy,300,2013-03-02 17:50:00
5:50 PM,50.0,37.4,62,30.24,6.2,WNW,4.6,-,N/A,,Mostly Cloudy,300,2013-03-02 17:50:00
6:50 PM,46.4,39.2,76,30.24,6.2,WSW,4.6,-,N/A,,Mostly Cloudy,250,2013-03-02 18:50:00
7:50 PM,46.4,37.4,71,30.24,-9999.0,WNW,1.2,-,N/A,,Clear,300,2013-03-02 19:50:00
8:50 PM,46,38,67,30.27,22,East,10.4,,,,Mostly Cloudy,100,2013-03-02 20:50:00
8:50 PM,46.4,39.2,76,30.24,-9999.0,East,10.4,-,N/A,,Clear,100,2013-03-02 20:50:00
9:50 PM,42.8,39.2,87,30.27,-9999.0,ESE,3.5,-,N/A,,Clear,120,2013-03-02 21:50:00
10:50 PM,37.4,35.6,93,30.27,6.2,SW,2.3,-,N/A,,Mostly Cloudy,220,2013-03-02 22:50:00
11:50 PM,38,37,95,30.27,16,West,2.3,,,,Mostly Cloudy,260,2013-03-02 23:50:00
11:50 PM,37.4,37.4,100,30.27,6.2,West,2.3,-,N/A,,Mostly Cloudy,260,2013-03-02 23:50:00